Погода в Екатерининке

Россия / Свердловская область     60°25′10″N   60°25′48″E
темп.,
°C
ветер,
м/с
пор.,
м/с
влажн.,
%
обл.,
%
осадки,
мм/ч
давл.,
гПа
погр.,
м
9 марта, вт
вт923:00−16ссв2298100 0.2 100277
02:00−17с2498100 0.2 1002109
05:00−17с2597100 0.4 1003196
08:00−18с3697100 0.3 1003259
11:00−16с2492100 0.3 1005354
14:00−13с2284100 0.1 1007564
17:00−13всв1186100 0.1 1008495
20:00−19всв119872 0.0 101120
10 марта, ср
ср1023:00−19ссв129976 0.1 101220
02:00−20с2299100 0.1 101439
05:00−22ссз2499100 0.3 1014124
08:00−26с2498100 0.1 101497
11:00−21ссв2391100 0.1 1014304
14:00−17ссв2282100 0.0 1013572
17:00−16св1281100 0.0 1012620
20:00−24всв119521 0.0 101320
11 марта, чт
чт1123:00−26ссз119830 0.0 101420
02:00−27зсз1110066 0.0 101320
05:00−28з119875 0.0 101219
08:00−25ссз0199100 0.1 101228
11:00−21ссв1291100 0.3 1012356
14:00−18ссв2383100 0.1 1012710
17:00−17с2384100 0.1 1013914
20:00−24с019667 0.0 101420
12 марта, пт
пт1223:00−23ююз129579 0.0 101420
02:00−22ююз2495100 0.0 1013128
05:00−22ююз249398 0.0 1012106
08:00−21юз259295 0.0 101295
11:00−13зюз388175 0.0 1011564
14:00−9з497769 0.0 1010984
17:00−9з397884 0.0 10101068
20:00−12зюз2108798 0.0 1010472
13 марта, сб
сб1323:00−13зюз3139098 0.0 1011437
02:00−11з4178588 0.0 1012657
05:00−10з3168487 0.0 1014602
08:00−9з4167968 0.0 1016621
11:00−5з5137373 0.0 1018688
14:00−2з5117096 0.0 1020881
17:00−3з397460 0.0 1021879
20:00−10з238238 0.0 102233